Temperature
17 16 16 15 15 15 15 15 15 15 15 14 14 14 14 14 14 14 14 15 15 15 16 15 15 15 15 15 15 15 15 14 14 14 15 15 15 14 13 12 12 12 12
16 16 16 15 15 15 15 15 15 15 15 15 15 15 15 14 14 14 15 15 15 16 16 15 15 15 14 14 14 15 15 15 14 14 14 15 15 14 13 12 12 12 12
16 16 16 15 15 15 15 14 14 14 15 15 15 15 14 14 14 14 14 14 15 15 15 15 15 15 15 14 14 15 15 15 14 14 14 14 15 14 14 13 12 12 12
17 16 16 16 15 15 14 14 13 14 14 14 14 14 14 14 14 13 13 14 14 15 15 15 15 15 15 14 15 15 15 14 14 14 13 13 14 14 14 13 12 12 12
17 17 17 17 16 15 15 15 14 14 14 14 14 14 13 14 14 14 14 14 14 15 15 15 15 14 15 14 15 15 14 14 14 13 13 13 14 14 15 14 13 12 12
18 18 17 17 16 16 16 16 16 15 15 15 14 14 14 14 14 14 14 14 14 14 15 15 15 14 15 14 14 14 14 14 13 13 13 13 14 15 15 14 14 13 12
18 18 17 17 17 17 16 16 16 16 16 15 14 14 14 14 14 14 14 13 13 14 14 14 14 14 14 14 14 14 14 14 13 13 14 14 15 15 15 14 14 13 12
18 18 17 17 17 17 16 16 16 16 15 15 14 14 14 14 13 14 13 13 14 14 14 14 14 14 14 14 14 14 14 14 14 14 15 15 14 14 14 14 13 12 11
17 17 17 17 17 16 16 16 15 15 15 14 14 13 13 13 13 14 13 13 13 14 14 14 14 14 14 14 14 14 14 15 15 15 14 14 13 14 14 14 13 13 12
16 16 16 16 16 16 15 15 15 15 14 13 13 13 13 13 13 13 13 13 13 14 14 14 13 14 14 14 15 14 14 14 14 14 14 14 14 14 14 14 13 13 13
14 14 14 15 15 15 15 15 14 14 14 13 12 12 13 13 12 12 12 13 13 13 13 13 13 13 14 13 13 14 13 13 13 13 14 14 14 14 14 14 13 13 13
13 13 12 12 13 13 13 13 13 13 12 12 12 12 12 12 12 12 12 12 12 13 13 13 13 13 13 12 13 13 13 12 12 12 13 14 13 13 13 13 13 13 12
11 11 12 12 12 12 12 12 12 12 12 12 12 12 12 12 12 12 12 12 12 12 12 12 13 13 13 13 13 13 12 11 12 13 13 13 12 12 12 12 12 12 12
11 11 11 11 11 11 10 10 11 12 12 12 12 12 12 12 12 11 12 12 11 12 12 12 12 12 12 12 12 11 11 11 11 11 11 11 11 11 12 12 12 12 12
11 11 11 10 11 11 11 11 11 11 11 11 11 11 11 11 11 11 11 11 11 11 11 11 11 11 11 12 12 11 11 11 11 11 11 11 11 11 11 11 11 11 11
11 11 11 11 11 11 11 11 11 11 11 11 11 11 11 11 11 11 11 11 11 11 10 10 10 10 10 11 11 11 10 10 10 10 10 10 10 10 11 11 11 11 11
11 11 11 11 11 11 11 11 11 11 11 11 11 11 11 11 11 11 11 11 10 10 10 10 10 10 10 10 10 10 10 10 10 10 10 10 10 10 10 10 10 10 11
11 11 11 11 10 10 10 10 10 10 10 10 10 10 10 10 10 11 11 11 10 10 9 9 9 9 10 10 9 9 10 10 10 10 10 10 10 10 10 10 10 10 10
11 11 11 10 10 10 10 10 10 10 10 9 9 9 9 9 9 9 9 9 9 9 9 9 9 9 9 9 9 9 10 10 10 10 10 10 10 9 9 9 9 10 10
11 11 11 10 10 10 10 10 10 10 10 9 9 9 9 9 9 9 9 9 9 8 8 8 8 8 8 9 9 9 9 10 10 10 10 10 9 9 9 9 9 9 10
11 11 11 10 11 11 10 10 10 10 9 9 9 9 9 9 9 9 9 9 9 9 9 8 8 8 8 9 9 9 9 9 9 9 9 9 9 9 9 9 9 9 9
11 10 10 10 10 10 10 10 10 10 9 9 9 9 9 9 9 9 9 9 10 10 9 9 9 9 8 9 9 9 9 9 9 9 9 9 9 9 9 9 9 9 9
10 10 10 10 10 10 10 10 10 10 10 9 9 9 9 9 9 9 9 9 10 10 10 9 9 9 9 9 9 9 9 9 9 9 9 9 9 9 9 9 9 9 8
10 10 10 10 10 11 10 10 10 10 10 10 10 10 9 9 9 9 10 10 10 10 10 10 9 10 9 9 9 9 9 9 9 8 8 8 9 9 9 8 8 8 8
10 10 10 11 11 10 10 10 10 10 10 10 10 10 10 10 10 10 9 9 9 9 9 9 9 9 9 9 9 9 9 9 9 9 8 8 8 8 8 8 8 8 7
10 10 10 10 10 10 10 10 10 10 10 10 9 9 9 9 9 9 9 9 9 9 9 9 9 9 9 9 9 9 9 9 9 9 9 9 9 8 8 8 7 7 7
Wind_Speed
5 4 4 4 4 4 5 6 5 5 6 8 10 10 10 9 9 8 5 6 7 6 6 6 7 6 6 5 6 6 5 4 4 2 2 2 4 5 5 5 5 5 7
7 6 6 6 6 5 6 5 5 5 5 5 7 10 10 9 9 9 9 9 7 4 5 6 9 8 7 6 6 7 7 6 4 4 3 2 3 4 4 3 2 3 5
7 7 7 7 8 8 7 5 3 1 0 0 2 5 7 7 8 9 8 8 5 6 6 8 9 9 8 7 7 7 7 6 4 4 4 2 2 3 3 2 1 1 2
6 7 7 8 9 9 9 7 5 4 4 4 4 5 5 6 9 10 10 9 7 7 7 8 8 9 10 9 8 8 7 7 5 5 4 3 3 3 3 3 3 1 1
6 7 9 8 8 9 9 8 8 8 7 7 6 5 5 6 7 9 9 9 9 8 7 7 7 10 12 10 9 8 9 8 7 5 5 4 4 5 6 4 3 2 2
7 9 8 7 8 8 8 8 8 8 7 7 6 6 5 4 6 7 6 7 9 9 8 6 6 11 13 14 15 15 15 13 10 8 6 5 6 5 5 5 4 3 3
9 9 7 8 9 8 7 7 8 8 7 7 6 6 5 5 7 9 8 6 7 8 8 6 5 4 6 6 12 15 16 18 16 13 11 8 9 10 9 7 6 5 4
7 8 7 8 9 8 7 8 8 7 6 6 6 4 3 5 8 8 7 4 5 6 5 5 4 3 3 4 5 8 10 11 13 11 12 10 7 11 12 9 9 6 3
5 5 6 7 7 6 7 6 6 6 5 4 4 4 4 4 5 6 4 2 2 3 4 6 7 5 4 4 5 7 8 7 7 8 8 9 14 18 16 10 9 8 4
6 4 3 6 7 6 7 6 5 6 7 5 4 3 1 3 4 3 1 1 1 1 2 4 6 8 7 7 5 4 5 6 6 7 8 10 11 15 21 14 12 10 5
5 5 4 1 3 4 8 7 8 7 7 5 3 3 0 3 4 3 4 3 2 2 2 2 3 4 5 4 5 4 2 2 4 5 5 5 5 7 10 10 10 9 7
5 6 5 4 3 3 5 7 8 8 5 3 2 2 1 2 3 4 5 6 5 4 3 3 3 2 4 3 3 3 3 3 3 5 5 6 7 8 8 7 9 9 7
5 5 4 5 4 4 4 5 3 3 4 3 1 2 3 1 3 4 4 7 8 4 2 3 3 4 4 3 2 3 3 4 3 3 5 7 6 6 6 6 5 6 4
4 4 4 5 5 4 1 1 1 1 1 1 2 4 4 3 3 3 2 3 4 4 4 4 5 3 2 1 1 2 3 3 3 4 3 3 3 5 5 5 4 5 4
4 4 3 3 5 4 3 0 1 2 3 2 3 3 3 4 4 5 5 4 4 6 5 4 3 3 2 1 1 1 1 2 2 2 2 3 4 6 5 6 5 5 4
4 2 2 2 3 4 4 3 4 4 3 2 1 0 2 4 5 4 6 9 12 11 4 2 2 1 1 2 2 2 2 2 3 3 4 4 5 7 7 6 5 7 8
4 3 2 2 2 2 2 3 2 3 6 9 10 8 6 5 4 3 8 11 12 6 2 2 3 4 3 4 4 3 3 3 3 4 4 5 5 6 7 8 9 8 6
4 4 3 2 2 2 2 2 2 1 1 3 7 8 9 9 9 10 10 7 4 1 1 2 2 3 3 4 4 3 3 3 3 4 4 4 4 4 6 7 9 9 7
3 3 2 2 2 3 3 2 1 1 2 2 2 4 6 7 7 6 4 2 1 2 2 2 3 3 3 3 4 4 4 4 4 3 4 4 4 4 4 5 7 9 8
3 4 3 3 3 3 2 2 2 3 4 3 3 2 2 3 2 2 1 1 1 2 3 3 4 4 4 4 4 4 4 4 4 3 3 3 3 4 4 4 5 4 4
3 3 4 3 3 3 3 3 4 4 4 3 1 1 2 1 1 1 1 2 3 3 3 3 3 3 3 3 3 4 4 4 4 4 4 4 4 4 3 4 3 3 3
4 3 2 2 3 3 4 4 3 3 3 2 1 1 2 0 2 2 3 3 3 3 3 3 3 3 3 3 3 4 4 5 5 5 5 5 5 5 5 4 4 3 4
3 3 3 2 2 4 4 4 3 2 2 2 2 1 1 1 2 2 2 1 1 2 2 2 3 4 3 3 3 4 5 5 5 5 5 5 5 5 5 5 5 6 7
4 4 4 3 4 5 4 3 3 2 3 3 2 2 2 2 2 3 3 2 2 2 2 3 3 4 5 3 4 5 6 6 5 4 5 5 6 6 6 5 6 6 6
4 4 4 4 4 4 4 3 3 2 3 3 3 3 3 3 4 4 4 4 3 4 4 3 3 4 5 5 6 6 8 8 7 6 6 5 6 7 6 6 6 5 5
4 4 4 4 4 4 3 2 3 3 3 3 4 4 4 4 4 4 4 4 4 4 4 4 4 5 6 7 8 7 6 6 6 6 6 5 5 5 5 5 6 6 6
Wind_Direction
223 227 223 219 212 190 182 199 201 197 193 188 181 181 185 194 205 213 208 219 218 212 200 195 213 201 196 185 179 175 175 163 153 158 148 163 148 153 118 92 80 67 55
202 213 218 198 190 192 193 194 194 209 208 189 179 176 182 198 203 199 202 226 231 223 226 214 222 198 203 190 186 190 189 180 154 159 153 151 158 158 133 118 93 78 64
199 200 212 201 188 195 204 199 182 188 222 297 195 181 184 189 206 211 202 224 220 218 223 224 224 191 202 194 193 196 192 180 160 143 147 148 151 146 127 127 141 89 85
208 215 215 208 201 197 197 196 187 184 191 201 199 188 195 202 204 212 209 208 218 216 213 219 225 201 203 192 193 191 179 173 163 147 141 155 152 144 145 165 181 205 186
210 226 236 216 206 201 196 190 181 180 190 190 190 203 218 221 213 203 207 205 223 236 220 194 212 228 223 205 190 179 171 173 170 160 152 157 156 163 188 171 166 170 224
222 230 237 227 218 215 199 183 178 186 193 188 195 221 238 242 258 259 227 200 215 223 227 203 208 230 227 214 202 190 182 180 183 184 171 174 176 163 155 153 145 161 212
225 233 222 222 223 221 201 180 182 185 185 190 194 207 234 258 267 259 249 224 218 215 208 192 202 206 213 215 212 203 195 193 188 187 190 181 173 178 157 159 169 172 188
233 239 231 224 227 219 204 200 190 187 188 188 197 202 244 277 284 295 295 240 214 219 207 176 175 193 184 217 219 199 194 201 200 192 195 187 165 160 167 169 167 144 107
262 252 250 243 235 201 215 211 170 163 158 167 163 182 207 259 287 296 294 256 239 220 184 179 161 147 158 163 181 187 183 190 191 175 163 164 162 161 154 137 145 162 174
329 312 247 232 227 197 175 169 144 134 126 131 139 131 177 271 287 280 171 133 162 152 189 203 177 151 135 132 128 152 191 199 172 148 146 157 163 171 172 171 168 175 162
31 46 63 155 204 173 151 149 146 136 127 119 97 81 235 256 282 271 183 158 192 181 209 228 228 165 136 133 146 149 165 201 172 155 153 151 162 179 186 182 177 175 173
61 68 75 93 113 140 144 148 151 143 147 135 51 9 315 257 283 280 214 194 191 195 220 246 271 226 166 210 182 149 180 199 190 177 180 183 195 196 191 180 178 184 188
64 66 76 74 86 125 146 150 153 160 153 143 208 268 287 282 267 290 266 212 193 178 198 203 223 237 210 172 133 123 165 183 195 203 214 215 211 190 165 150 152 160 143
63 61 76 85 83 71 96 154 131 21 348 41 304 293 297 298 268 260 276 188 162 120 89 74 65 60 98 134 126 151 170 190 194 202 216 214 172 167 163 148 143 153 146
97 84 67 81 105 96 66 348 203 249 264 250 268 256 248 259 246 207 196 161 142 129 105 73 53 36 33 73 102 199 228 235 232 216 206 196 189 187 179 168 150 158 177
117 108 94 91 96 112 110 79 48 41 33 39 47 69 292 282 285 210 174 144 140 133 107 117 134 164 242 236 224 242 247 248 245 238 235 228 211 205 192 180 175 180 191
150 155 154 143 119 115 110 121 123 47 41 35 27 28 40 31 26 124 141 135 139 131 115 155 179 189 203 222 234 234 243 254 258 247 234 224 217 212 206 193 185 186 182
152 159 151 157 158 160 167 172 180 203 358 28 26 29 46 54 72 101 113 110 124 117 143 178 213 219 215 212 220 229 246 261 263 254 241 217 202 208 207 200 189 180 169
165 168 143 131 139 151 162 164 189 181 125 106 74 52 60 67 78 99 87 90 170 228 225 239 240 235 232 229 230 227 226 230 243 246 238 222 198 199 203 191 179 166 165
163 149 135 117 96 97 113 112 104 102 101 96 85 56 43 53 59 54 43 21 286 264 241 239 246 246 245 238 233 234 234 229 230 232 231 222 203 197 200 198 171 164 158
144 126 118 108 97 95 95 98 109 115 119 121 122 203 167 91 20 330 301 277 271 275 275 269 264 260 256 244 230 225 230 237 229 224 219 206 196 192 196 184 161 150 130
144 136 134 133 122 104 95 90 99 109 115 117 109 143 176 294 18 9 343 325 312 301 299 299 294 276 262 254 248 241 233 233 227 217 211 206 201 193 183 183 166 153 148
160 154 148 134 117 118 104 92 102 120 123 122 124 104 42 22 6 351 336 331 296 288 286 274 275 278 263 231 226 234 237 234 228 218 207 199 197 193 183 188 183 172 182
164 155 141 131 116 113 114 112 114 111 106 106 109 100 80 42 16 9 9 14 3 320 301 296 297 302 298 274 259 250 250 256 246 216 203 194 191 191 190 186 189 185 177
159 143 123 119 125 120 119 122 122 101 86 93 87 84 74 56 38 27 22 14 1 349 339 327 311 303 299 290 281 267 258 260 254 225 199 198 195 192 198 200 192 181 177
157 135 124 117 117 116 109 99 101 102 89 76 75 72 67 57 43 29 16 8 358 352 348 346 352 2 357 344 332 319 293 265 251 225 201 191 186 183 190 197 192 186 191
Height
1479 1481 1482 1483 1483 1484 1485 1486 1488 1490 1491 1492 1493 1496 1500 1506 1511 1515 1520 1523 1527 1528 1528 1530 1532 1534 1536 1537 1539 1540 1543 1545 1546 1548 1550 1550 1551 1551 1552 1552 1552 1552 1552
1477 1478 1479 1481 1482 1483 1485 1486 1488 1491 1492 1494 1495 1497 1501 1505 1509 1513 1518 1521 1523 1524 1525 1526 1527 1528 1530 1531 1533 1535 1537 1540 1542 1544 1546 1547 1548 1548 1548 1549 1549 1550 1549
1475 1475 1476 1478 1479 1481 1483 1485 1487 1489 1491 1493 1495 1499 1501 1505 1509 1513 1515 1517 1518 1520 1521 1521 1521 1522 1524 1526 1528 1529 1532 1534 1537 1539 1541 1543 1545 1545 1545 1546 1546 1547 1547
1473 1473 1474 1475 1477 1479 1480 1482 1485 1487 1489 1492 1495 1497 1499 1502 1504 1507 1510 1511 1513 1514 1515 1515 1516 1516 1519 1521 1522 1524 1526 1528 1531 1533 1536 1539 1540 1541 1542 1543 1543 1544 1544
1470 1470 1470 1472 1474 1475 1477 1479 1481 1484 1487 1489 1492 1494 1497 1499 1502 1503 1505 1506 1508 1510 1510 1510 1511 1512 1514 1515 1517 1518 1519 1521 1524 1527 1529 1532 1534 1535 1538 1540 1541 1542 1542
1466 1466 1468 1469 1470 1472 1474 1476 1478 1481 1483 1486 1488 1490 1492 1495 1496 1498 1500 1501 1502 1504 1505 1505 1506 1508 1509 1510 1511 1513 1514 1515 1517 1520 1523 1526 1528 1532 1535 1536 1538 1539 1539
1462 1463 1464 1466 1466 1468 1471 1473 1476 1478 1480 1482 1483 1485 1488 1489 1490 1492 1494 1495 1496 1498 1498 1498 1500 1502 1504 1505 1507 1507 1508 1509 1512 1516 1517 1520 1524 1528 1531 1533 1534 1535 1536
1457 1459 1461 1462 1463 1465 1467 1469 1471 1473 1475 1478 1480 1481 1483 1485 1486 1488 1489 1489 1490 1491 1492 1493 1495 1498 1499 1499 1501 1502 1504 1506 1508 1510 1512 1517 1522 1525 1527 1529 1531 1533 1534
1452 1453 1455 1456 1457 1459 1461 1463 1465 1467 1469 1473 1475 1477 1479 1480 1482 1483 1485 1485 1486 1487 1488 1489 1490 1493 1495 1495 1496 1498 1500 1502 1504 1506 1509 1512 1516 1519 1521 1524 1525 1527 1528
1448 1447 1448 1449 1451 1453 1454 1457 1459 1462 1464 1468 1470 1472 1475 1477 1477 1479 1481 1482 1482 1483 1484 1485 1486 1489 1491 1491 1492 1493 1495 1499 1500 1501 1503 1507 1511 1514 1516 1519 1521 1523 1525
1447 1446 1445 1445 1446 1448 1448 1450 1454 1458 1461 1465 1466 1467 1471 1473 1474 1475 1477 1479 1480 1480 1480 1482 1483 1483 1485 1486 1488 1490 1492 1495 1496 1497 1499 1502 1505 1508 1511 1514 1516 1519 1522
1447 1446 1445 1445 1444 1445 1446 1448 1450 1454 1457 1461 1463 1464 1466 1468 1470 1472 1473 1475 1477 1478 1478 1479 1480 1481 1482 1483 1485 1486 1488 1491 1493 1494 1495 1498 1501 1503 1507 1510 1513 1515 1517
1448 1447 1446 1445 1444 1444 1446 1448 1450 1453 1456 1457 1459 1461 1463 1464 1466 1469 1471 1472 1474 1475 1475 1476 1477 1478 1480 1481 1483 1483 1485 1488 1490 1491 1492 1495 1497 1499 1502 1505 1508 1510 1511
1449 1448 1447 1446 1446 1445 1445 1447 1451 1454 1455 1456 1456 1457 1458 1460 1463 1466 1468 1470 1471 1472 1473 1474 1476 1477 1478 1479 1480 1480 1482 1484 1485 1486 1488 1490 1491 1494 1496 1499 1501 1504 1506
1450 1449 1448 1448 1448 1447 1447 1449 1452 1455 1455 1456 1456 1456 1456 1458 1460 1463 1465 1467 1469 1471 1472 1473 1474 1475 1475 1476 1477 1477 1478 1479 1481 1482 1484 1484 1486 1488 1490 1493 1495 1497 1500
1451 1450 1450 1449 1450 1450 1450 1452 1453 1454 1455 1455 1455 1455 1455 1457 1459 1461 1463 1465 1467 1469 1470 1470 1471 1473 1473 1473 1474 1474 1475 1476 1477 1478 1479 1480 1480 1482 1483 1485 1487 1490 1493
1451 1450 1450 1450 1451 1451 1452 1452 1453 1455 1455 1455 1455 1455 1455 1456 1458 1459 1461 1463 1465 1466 1467 1468 1469 1469 1471 1472 1472 1472 1473 1474 1473 1474 1474 1474 1475 1475 1476 1477 1479 1482 1486
1451 1450 1450 1450 1451 1451 1452 1453 1453 1454 1454 1455 1454 1455 1455 1456 1458 1459 1461 1463 1463 1464 1465 1465 1466 1467 1468 1468 1469 1470 1470 1471 1471 1470 1471 1471 1471 1470 1470 1469 1471 1474 1478
1451 1450 1450 1450 1450 1450 1451 1452 1452 1452 1452 1454 1454 1454 1455 1457 1458 1460 1461 1462 1462 1463 1463 1463 1464 1464 1465 1465 1466 1467 1467 1467 1467 1467 1467 1467 1467 1467 1466 1466 1467 1470 1474
1450 1450 1451 1451 1451 1451 1452 1452 1453 1453 1454 1455 1455 1455 1455 1457 1458 1459 1459 1460 1460 1460 1460 1461 1461 1461 1462 1462 1463 1463 1463 1464 1464 1464 1463 1463 1463 1464 1464 1465 1466 1469 1471
1450 1451 1452 1452 1452 1453 1453 1453 1454 1455 1456 1456 1456 1457 1457 1458 1458 1459 1459 1459 1459 1459 1459 1459 1459 1459 1459 1459 1459 1459 1459 1459 1459 1459 1459 1459 1459 1460 1460 1461 1462 1464 1468
1450 1451 1451 1452 1452 1453 1454 1455 1455 1456 1457 1457 1457 1458 1458 1459 1459 1459 1458 1458 1458 1458 1458 1458 1457 1456 1456 1456 1456 1456 1456 1456 1456 1456 1456 1456 1456 1456 1457 1457 1458 1460 1462
1449 1451 1451 1452 1453 1454 1456 1457 1457 1457 1457 1458 1459 1459 1460 1460 1460 1460 1460 1459 1458 1458 1458 1457 1456 1455 1452 1452 1452 1452 1452 1451 1451 1452 1452 1452 1452 1451 1452 1454 1454 1456 1458
1449 1451 1452 1453 1454 1454 1456 1458 1458 1458 1458 1459 1460 1461 1461 1461 1461 1461 1461 1460 1459 1458 1457 1456 1455 1453 1452 1450 1450 1449 1447 1448 1447 1447 1447 1447 1447 1447 1447 1447 1449 1451 1453
1450 1451 1453 1454 1455 1456 1457 1458 1459 1459 1459 1460 1461 1461 1462 1462 1461 1461 1460 1459 1458 1457 1456 1455 1454 1453 1451 1450 1449 1447 1445 1444 1444 1442 1442 1442 1443 1443 1442 1443 1443 1444 1446
1449 1451 1453 1454 1456 1457 1458 1459 1460 1460 1460 1461 1461 1461 1462 1461 1461 1460 1459 1458 1457 1456 1455 1454 1453 1452 1450 1449 1448 1446 1444 1443 1442 1440 1439 1438 1438 1439 1438 1439 1439 1441 1442